TimeEDT,TemperatureF,Dew PointF,Humidity,Sea Level PressureIn,VisibilityMPH,Wind Direction,Wind SpeedMPH,Gust SpeedMPH,PrecipitationIn,Events,Conditions,WindDirDegrees,DateUTC
12:12 AM,53.6,51.8,94,30.07,0.2,Calm,Calm,-,N/A,Fog,Fog,0,2013-10-12 04:12:00
12:32 AM,53.6,53.6,100,30.07,0.2,Calm,Calm,-,N/A,Fog,Fog,0,2013-10-12 04:32:00
12:52 AM,53.6,53.6,100,30.07,0.5,Calm,Calm,-,N/A,Fog,Fog,0,2013-10-12 04:52:00
1:12 AM,51.8,51.8,100,30.07,0.8,Calm,Calm,-,N/A,,Overcast,0,2013-10-12 05:12:00
1:33 AM,51.8,51.8,100,30.07,0.2,Calm,Calm,-,N/A,Fog,Fog,0,2013-10-12 05:33:00
1:53 AM,51.8,51.8,100,30.07,0.5,Calm,Calm,-,N/A,Fog,Fog,0,2013-10-12 05:53:00
2:13 AM,53.6,53.6,100,30.07,0.8,Calm,Calm,-,N/A,,Mostly Cloudy,0,2013-10-12 06:13:00
2:33 AM,53.6,53.6,100,30.07,0.2,Calm,Calm,-,N/A,Fog,Fog,0,2013-10-12 06:33:00
2:53 AM,51.8,51.8,100,30.07,2.0,Calm,Calm,-,N/A,,Mostly Cloudy,0,2013-10-12 06:53:00
3:13 AM,51.8,51.8,100,30.07,1.5,Calm,Calm,-,N/A,,Mostly Cloudy,0,2013-10-12 07:13:00
3:33 AM,51.8,51.8,100,30.07,1.0,Calm,Calm,-,N/A,,Overcast,0,2013-10-12 07:33:00
3:53 AM,51.8,51.8,100,30.07,1.5,Calm,Calm,-,N/A,,Mostly Cloudy,0,2013-10-12 07:53:00
4:13 AM,51.8,51.8,100,30.08,0.2,Calm,Calm,-,N/A,Fog,Fog,0,2013-10-12 08:13:00
4:33 AM,51.8,51.8,100,30.08,0.2,Calm,Calm,-,N/A,Fog,Fog,0,2013-10-12 08:33:00
4:53 AM,50.0,48.2,94,30.08,0.8,Calm,Calm,-,N/A,,Mostly Cloudy,0,2013-10-12 08:53:00
5:13 AM,51.8,50.0,94,30.08,1.5,Calm,Calm,-,N/A,,Mist,0,2013-10-12 09:13:00
5:33 AM,51.8,51.8,100,30.09,1.5,Calm,Calm,-,N/A,,Mist,0,2013-10-12 09:33:00
5:53 AM,50.0,50.0,100,30.09,3.0,Calm,Calm,-,N/A,,Clear,0,2013-10-12 09:53:00
6:14 AM,50.0,48.2,94,30.09,0.5,Calm,Calm,-,N/A,Fog,Fog,0,2013-10-12 10:14:00
6:34 AM,50.0,50.0,100,30.09,4.0,Calm,Calm,-,N/A,,Scattered Clouds,0,2013-10-12 10:34:00
6:54 AM,50.0,48.2,94,30.09,0.8,Calm,Calm,-,N/A,,Mostly Cloudy,0,2013-10-12 10:54:00
7:14 AM,50.0,48.2,94,30.09,3.0,Calm,Calm,-,N/A,,Scattered Clouds,0,2013-10-12 11:14:00
7:34 AM,50.0,48.2,94,30.09,3.0,Calm,Calm,-,N/A,,Clear,0,2013-10-12 11:34:00
7:54 AM,50.0,50.0,100,30.09,0.8,Calm,Calm,-,N/A,,Mist,0,2013-10-12 11:54:00
8:14 AM,51.8,50.0,94,30.09,3.0,Calm,Calm,-,N/A,,Mostly Cloudy,0,2013-10-12 12:14:00
8:35 AM,53.6,51.8,94,30.09,2.5,Calm,Calm,-,N/A,,Overcast,0,2013-10-12 12:35:00
8:55 AM,55.4,53.6,94,30.10,2.0,Calm,Calm,-,N/A,,Overcast,0,2013-10-12 12:55:00
9:15 AM,57.2,55.4,94,30.10,0.2,Calm,Calm,-,N/A,Fog,Fog,0,2013-10-12 13:15:00
9:35 AM,57.2,57.2,100,30.10,0.2,Calm,Calm,-,N/A,Fog,Fog,0,2013-10-12 13:35:00
9:55 AM,59.0,57.2,94,30.09,0.2,Calm,Calm,-,N/A,Fog,Fog,0,2013-10-12 13:55:00
10:15 AM,60.8,60.8,100,30.10,0.2,Calm,Calm,-,N/A,Fog,Fog,0,2013-10-12 14:15:00
10:35 AM,62.6,62.6,100,30.10,0.5,Calm,Calm,-,N/A,Fog,Fog,0,2013-10-12 14:35:00
10:55 AM,66.2,64.4,94,30.09,5.0,Calm,Calm,-,N/A,,Scattered Clouds,0,2013-10-12 14:55:00
11:15 AM,68.0,62.6,83,30.09,10.0,Calm,Calm,-,N/A,,Clear,0,2013-10-12 15:15:00
11:35 AM,69.8,62.6,78,30.09,10.0,Calm,Calm,-,N/A,,Clear,0,2013-10-12 15:35:00
11:55 AM,73.4,60.8,65,30.09,10.0,SSE,4.6,-,N/A,,Clear,160,2013-10-12 15:55:00
12:16 PM,73.4,57.2,57,30.09,10.0,SE,3.5,-,N/A,,Clear,130,2013-10-12 16:16:00
12:36 PM,73.4,55.4,53,30.09,10.0,South,4.6,-,N/A,,Clear,170,2013-10-12 16:36:00
12:56 PM,73.4,60.8,65,30.09,7.0,SSE,5.8,-,N/A,,Clear,160,2013-10-12 16:56:00
1:16 PM,73.4,60.8,65,30.08,10.0,ESE,5.8,-,N/A,,Clear,110,2013-10-12 17:16:00
1:36 PM,73.4,59.0,61,30.07,10.0,SSE,5.8,-,N/A,,Clear,150,2013-10-12 17:36:00
1:56 PM,75.2,57.2,53,30.07,10.0,SE,4.6,-,N/A,,Clear,140,2013-10-12 17:56:00
2:16 PM,75.2,55.4,50,30.06,10.0,East,6.9,-,N/A,,Clear,90,2013-10-12 18:16:00
2:36 PM,75.2,55.4,50,30.06,10.0,ESE,6.9,-,N/A,,Clear,110,2013-10-12 18:36:00
2:56 PM,75.2,53.6,47,30.06,10.0,ESE,6.9,-,N/A,,Clear,110,2013-10-12 18:56:00
3:16 PM,75.2,53.6,47,30.05,10.0,ESE,9.2,-,N/A,,Clear,120,2013-10-12 19:16:00
3:37 PM,73.4,48.2,41,30.05,10.0,East,9.2,-,N/A,,Clear,100,2013-10-12 19:37:00
3:52 PM,73.4,48.2,41,30.05,10.0,SE,9.2,-,N/A,,Clear,140,2013-10-12 19:52:00
4:12 PM,73.4,46.4,38,30.05,10.0,SSE,8.1,-,N/A,,Clear,150,2013-10-12 20:12:00
4:32 PM,71.6,51.8,50,30.05,10.0,ESE,3.5,-,N/A,,Scattered Clouds,120,2013-10-12 20:32:00
4:52 PM,73.4,51.8,47,30.05,10.0,ESE,8.1,-,N/A,,Mostly Cloudy,110,2013-10-12 20:52:00
5:12 PM,71.6,55.4,57,30.06,10.0,ESE,5.8,-,N/A,,Scattered Clouds,120,2013-10-12 21:12:00
5:32 PM,69.8,55.4,60,30.05,10.0,East,6.9,-,N/A,,Mostly Cloudy,100,2013-10-12 21:32:00
5:52 PM,69.8,57.2,64,30.05,10.0,ESE,4.6,-,N/A,,Mostly Cloudy,110,2013-10-12 21:52:00
6:13 PM,69.8,59.0,68,30.05,10.0,ESE,6.9,-,N/A,,Scattered Clouds,110,2013-10-12 22:13:00
6:33 PM,68.0,60.8,78,30.05,10.0,ESE,5.8,-,N/A,,Mostly Cloudy,120,2013-10-12 22:33:00
6:53 PM,66.2,60.8,83,30.05,10.0,East,4.6,-,N/A,,Scattered Clouds,100,2013-10-12 22:53:00
7:13 PM,66.2,60.8,83,30.06,10.0,ESE,3.5,-,N/A,,Clear,120,2013-10-12 23:13:00
7:33 PM,66.2,62.6,88,30.06,10.0,SE,3.5,-,N/A,,Scattered Clouds,140,2013-10-12 23:33:00
7:53 PM,66.2,62.6,88,30.06,10.0,SE,4.6,-,N/A,,Mostly Cloudy,130,2013-10-12 23:53:00
8:13 PM,66.2,62.6,88,30.07,10.0,SE,3.5,-,N/A,,Mostly Cloudy,130,2013-10-13 00:13:00
8:33 PM,66.2,62.6,88,30.07,10.0,SE,5.8,-,N/A,,Overcast,130,2013-10-13 00:33:00
8:53 PM,68.0,62.6,83,30.07,10.0,ESE,5.8,-,N/A,,Overcast,120,2013-10-13 00:53:00
9:13 PM,66.2,64.4,94,30.07,10.0,ESE,5.8,-,N/A,,Mostly Cloudy,120,2013-10-13 01:13:00
9:33 PM,66.2,64.4,94,30.08,10.0,ESE,5.8,-,N/A,,Overcast,120,2013-10-13 01:33:00
9:53 PM,66.2,64.4,94,30.08,10.0,SE,4.6,-,N/A,,Overcast,130,2013-10-13 01:53:00
10:13 PM,66.2,64.4,94,30.08,10.0,SE,4.6,-,N/A,,Mostly Cloudy,130,2013-10-13 02:13:00
10:34 PM,66.2,62.6,88,30.08,10.0,SE,3.5,-,N/A,,Clear,140,2013-10-13 02:34:00
10:54 PM,66.2,64.4,94,30.08,10.0,SE,3.5,-,N/A,,Clear,140,2013-10-13 02:54:00
11:14 PM,66.2,64.4,94,30.08,10.0,SE,3.5,-,N/A,,Clear,130,2013-10-13 03:14:00
11:34 PM,64.4,62.6,94,30.08,7.0,Calm,Calm,-,N/A,,Clear,0,2013-10-13 03:34:00
11:54 PM,64.4,62.6,94,30.08,10.0,SSE,3.5,-,N/A,,Clear,150,2013-10-13 03:54:00